Terminal Aerodrome Forecast
Issued by NWS

Home | Current Version | Previous Version | Text Only | Print | Product List | Glossary On
Versions: 1 2 3 4 5 6 7 8 9 10 11 12 13 14 15 16 17 18 19 20 21 22 23 24 25 26 27
616
FTPQ31 PGUM 271729
TAFGUM
TAF

TAF
PGSN 271729Z 2718/2818 VRB06KT P6SM VCSH SCT014 SCT030 BKN100
      TEMPO 2718/2722 3SM +SHRA SCT012 BKN020 OVC080
     FM280000 06010KT P6SM VCSH FEW016 SCT040 BKN120=

USA.gov is the U.S. government's official web portal to all federal, state and local government web resources and services.